User: anonymous   Login
Location: Pine Mountain Observatory
(43.7910°N, 120.9377°W)
Time: 09:44:48
(UTC-07:00)
Language:

Cosmos 1076 Rocket - Orbit

View from above orbital plane
View from above orbital plane
View from above satellite
View from above satellite

Ground track
Ground track

The orbit data is extracted from the following two-line orbital elements,

1 11267U 79011B   17206.07306224 +.00000066 +00000-0 +42756-5 0  9996
2 11267 082.5242 193.7151 0018511 102.6769 257.6519 14.88845776059902
Epoch (UTC): 25 July 2017 01:45:12
Eccentricity: 0.0018511
inclination: 82.5242°
perigee height: 588 km
apogee height: 614 km
right ascension of ascending node: 193.7151°
argument of perigee: 102.6769°
revolutions per day: 14.88845776
mean anomaly at epoch: 257.6519°
orbit number at epoch: 5990

The dashed part of the orbit path shows where the satellite is in the earth's shadow,  

DLR